| time (UTC) | temp F | wind direction | speed knots | gust knots | rain 1hr in | rain 24hr in | rain mn in | humidity % | barometer mb |
| 20260510162539 | 84 | 74 | 0.9 | 2.6 | 0.00 | 0.00 | 0.00 | 41 | 1015.0 |
| 20260510162104 | 84 | 349 | 0.0 | 3.5 | 0.00 | 0.00 | 0.00 | 39 | 1015.1 |
| 20260510161546 | 84 | 162 | 0.9 | 3.5 | 0.00 | 0.00 | 0.00 | 39 | 1015.1 |
| 20260510161029 | 83 | 148 | 0.0 | 4.3 | 0.00 | 0.00 | 0.00 | 43 | 1015.1 |
| 20260510160536 | 83 | 20 | 0.9 | 4.3 | 0.00 | 0.00 | 0.00 | 46 | 1015.1 |
| 20260510160041 | 82 | 244 | 0.0 | 1.7 | 0.00 | 0.00 | 0.00 | 49 | 1015.1 |
| 20260510155524 | 82 | 245 | 0.0 | 7.0 | 0.00 | 0.00 | 0.00 | 45 | 1015.1 |
| 20260510155029 | 82 | 78 | 1.7 | 7.0 | 0.00 | 0.00 | 0.00 | 42 | 1015.1 |
| 20260510154532 | 82 | 59 | 0.9 | 4.3 | 0.00 | 0.00 | 0.00 | 45 | 1015.2 |
| 20260510154035 | 82 | 49 | 0.9 | 4.3 | 0.00 | 0.00 | 0.00 | 49 | 1015.2 |
| 20260510153536 | 82 | 229 | 0.0 | 1.7 | 0.00 | 0.00 | 0.00 | 48 | 1015.1 |
| 20260510153041 | 82 | 141 | 0.0 | 1.7 | 0.00 | 0.00 | 0.00 | 50 | 1015.2 |
| 20260510152544 | 81 | 45 | 0.0 | 4.3 | 0.00 | 0.00 | 0.00 | 51 | 1015.2 |
| 20260510152026 | 81 | 44 | 0.0 | 4.3 | 0.00 | 0.00 | 0.00 | 51 | 1015.2 |
| 20260510151550 | 81 | 87 | 0.9 | 4.3 | 0.00 | 0.00 | 0.00 | 45 | 1015.3 |
| 20260510151033 | 81 | 62 | 0.0 | 4.3 | 0.00 | 0.00 | 0.00 | 47 | 1015.3 |
| 20260510150536 | 80 | 131 | 0.0 | 2.6 | 0.00 | 0.00 | 0.00 | 48 | 1015.3 |
| 20260510150025 | 80 | 331 | 0.0 | 2.6 | 0.00 | 0.00 | 0.00 | 52 | 1015.3 |
| 20260510145528 | 79 | 51 | 0.0 | 2.6 | 0.00 | 0.00 | 0.00 | 53 | 1015.3 |
| 20260510145032 | 78 | 49 | 0.0 | 3.5 | 0.00 | 0.00 | 0.00 | 52 | 1015.3 |
| 20260510144556 | 78 | 128 | 0.9 | 3.5 | 0.00 | 0.00 | 0.00 | 51 | 1015.2 |
| 20260510144040 | 78 | 11 | 0.9 | 4.3 | 0.00 | 0.00 | 0.00 | 52 | 1015.2 |
| 20260510143523 | 77 | 80 | 0.9 | 3.5 | 0.00 | 0.00 | 0.00 | 52 | 1015.2 |
| 20260510143027 | 77 | 40 | 0.0 | 3.5 | 0.00 | 0.00 | 0.00 | 55 | 1015.2 |
| 20260510142532 | 77 | 97 | 0.0 | 1.7 | 0.00 | 0.00 | 0.00 | 55 | 1015.3 |
| 20260510142036 | 76 | 97 | 0.0 | 4.3 | 0.00 | 0.00 | 0.00 | 55 | 1015.2 |
| 20260510141601 | 76 | 97 | 0.9 | 4.3 | 0.00 | 0.00 | 0.00 | 57 | 1015.2 |
| 20260510141104 | 76 | 36 | 0.0 | 1.7 | 0.00 | 0.00 | 0.00 | 57 | 1015.2 |
| 20260510140526 | 75 | 265 | 0.0 | 1.7 | 0.00 | 0.00 | 0.00 | 58 | 1015.3 |
| 20260510140030 | 75 | 225 | 0.0 | 1.7 | 0.00 | 0.00 | 0.00 | 59 | 1015.2 |
| 20260510135539 | 74 | 81 | 0.0 | 0.9 | 0.00 | 0.00 | 0.00 | 66 | 1015.3 |
| 20260510135023 | 73 | 81 | 0.0 | 0.9 | 0.00 | 0.00 | 0.00 | 63 | 1015.1 |
| 20260510134527 | 73 | 81 | 0.0 | 0.9 | 0.00 | 0.00 | 0.00 | 67 | 1015.2 |
| 20260510134031 | 72 | 81 | 0.0 | 0.9 | 0.00 | 0.00 | 0.00 | 69 | 1015.2 |
| 20260510133555 | 71 | 81 | 0.0 | 0.9 | 0.00 | 0.00 | 0.00 | 75 | 1015.1 |
| 20260510133037 | 70 | 81 | 0.0 | 2.6 | 0.00 | 0.00 | 0.00 | 74 | 1015.2 |
| 20260510132601 | 69 | 81 | 0.0 | 2.6 | 0.00 | 0.00 | 0.00 | 78 | 1015.2 |
| 20260510132023 | 68 | 81 | 0.0 | 3.5 | 0.00 | 0.00 | 0.00 | 81 | 1015.2 |
| 20260510131547 | 67 | 275 | 0.0 | 0.0 | 0.00 | 0.00 | 0.00 | 85 | 1015.2 |
| 20260510131030 | 66 | 275 | 0.0 | 1.7 | 0.00 | 0.00 | 0.00 | 87 | 1015.1 |
| 20260510130535 | 65 | 275 | 0.0 | 0.9 | 0.00 | 0.00 | 0.00 | 90 | 1015.0 |
| 20260510130037 | 65 | 279 | 0.0 | 2.6 | 0.00 | 0.00 | 0.00 | 91 | 1014.9 |
| 20260510125541 | 64 | 279 | 0.0 | 2.6 | 0.00 | 0.00 | 0.00 | 92 | 1014.8 |
| 20260510125028 | 63 | 248 | 0.0 | 1.7 | 0.00 | 0.00 | 0.00 | 93 | 1014.8 |
| 20260510124531 | 63 | 248 | 0.0 | 1.7 | 0.00 | 0.00 | 0.00 | 93 | 1014.8 |
| 20260510124034 | 63 | 247 | 0.0 | 0.0 | 0.00 | 0.00 | 0.00 | 93 | 1014.8 |
| 20260510123538 | 63 | 247 | 0.0 | 0.0 | 0.00 | 0.00 | 0.00 | 94 | 1014.7 |
| 20260510123043 | 62 | 247 | 0.0 | 0.0 | 0.00 | 0.00 | 0.00 | 94 | 1014.7 |
| 20260510122526 | 62 | 247 | 0.0 | 0.0 | 0.00 | 0.00 | 0.00 | 94 | 1014.5 |
| 20260510122031 | 61 | 247 | 0.0 | 0.0 | 0.00 | 0.00 | 0.00 | 94 | 1014.5 |
| 20260510121534 | 60 | 247 | 0.0 | 0.0 | 0.00 | 0.00 | 0.00 | 94 | 1014.4 |
| 20260510121039 | 59 | 247 | 0.0 | 0.0 | 0.00 | 0.00 | 0.00 | 94 | 1014.3 |
| 20260510120542 | 58 | 247 | 0.0 | 0.0 | 0.00 | 0.00 | 0.00 | 93 | 1014.3 |
| 20260510120027 | 57 | 247 | 0.0 | 0.0 | 0.00 | 0.00 | 0.00 | 93 | 1014.2 |
| 20260510115534 | 57 | 247 | 0.0 | 0.0 | 0.00 | 0.00 | 0.00 | 92 | 1014.1 |
| 20260510115039 | 56 | 247 | 0.0 | 0.0 | 0.00 | 0.00 | 0.00 | 92 | 1014.2 |
| 20260510114543 | 56 | 247 | 0.0 | 0.0 | 0.00 | 0.00 | 0.00 | 92 | 1014.2 |
| 20260510114026 | 56 | 247 | 0.0 | 0.0 | 0.00 | 0.00 | 0.00 | 92 | 1014.2 |
| 20260510113550 | 56 | 247 | 0.0 | 0.0 | 0.00 | 0.00 | 0.00 | 92 | 1014.0 |
| 20260510113034 | 56 | 247 | 0.0 | 0.0 | 0.00 | 0.00 | 0.00 | 92 | 1013.9 |
| 20260510112538 | 56 | 247 | 0.0 | 0.0 | 0.00 | 0.00 | 0.00 | 92 | 1013.8 |
| 20260510112101 | 56 | 247 | 0.0 | 0.0 | 0.00 | 0.00 | 0.00 | 92 | 1013.7 |
| 20260510111525 | 56 | 247 | 0.0 | 0.0 | 0.00 | 0.00 | 0.00 | 92 | 1013.5 |
| 20260510111028 | 56 | 247 | 0.0 | 0.0 | 0.00 | 0.00 | 0.00 | 92 | 1013.4 |
| 20260510110533 | 57 | 247 | 0.0 | 0.0 | 0.00 | 0.00 | 0.00 | 92 | 1013.3 |
| 20260510110036 | 57 | 247 | 0.0 | 0.0 | 0.00 | 0.00 | 0.00 | 92 | 1013.2 |
| 20260510105525 | 57 | 247 | 0.0 | 0.0 | 0.00 | 0.00 | 0.00 | 92 | 1013.1 |
| 20260510105049 | 57 | 247 | 0.0 | 0.0 | 0.00 | 0.00 | 0.00 | 92 | 1013.0 |
| 20260510104532 | 57 | 247 | 0.0 | 0.0 | 0.00 | 0.00 | 0.00 | 92 | 1013.0 |
| 20260510104035 | 57 | 247 | 0.0 | 0.0 | 0.00 | 0.00 | 0.00 | 92 | 1013.0 |
| 20260510103539 | 57 | 247 | 0.0 | 0.0 | 0.00 | 0.00 | 0.00 | 92 | 1012.9 |
| 20260510103023 | 57 | 247 | 0.0 | 0.0 | 0.00 | 0.00 | 0.00 | 92 | 1012.8 |
| 20260510102526 | 57 | 247 | 0.0 | 0.0 | 0.00 | 0.00 | 0.00 | 92 | 1012.8 |
| 20260510102031 | 57 | 247 | 0.0 | 0.0 | 0.00 | 0.00 | 0.00 | 92 | 1012.7 |
| 20260510101534 | 57 | 247 | 0.0 | 0.0 | 0.00 | 0.00 | 0.00 | 92 | 1012.6 |
| 20260510101058 | 57 | 247 | 0.0 | 0.0 | 0.00 | 0.00 | 0.00 | 92 | 1012.6 |
| 20260510100541 | 57 | 247 | 0.0 | 0.0 | 0.00 | 0.00 | 0.00 | 92 | 1012.7 |
| 20260510100024 | 57 | 247 | 0.0 | 0.0 | 0.00 | 0.00 | 0.00 | 91 | 1012.6 |
| 20260510095548 | 57 | 247 | 0.0 | 0.0 | 0.00 | 0.00 | 0.00 | 91 | 1012.6 |
| 20260510095031 | 57 | 247 | 0.0 | 0.0 | 0.00 | 0.00 | 0.00 | 91 | 1012.6 |
| 20260510094540 | 57 | 247 | 0.0 | 0.0 | 0.00 | 0.00 | 0.00 | 91 | 1012.4 |
| 20260510094042 | 57 | 247 | 0.0 | 0.0 | 0.00 | 0.00 | 0.00 | 91 | 1012.3 |
| 20260510093527 | 57 | 247 | 0.0 | 0.0 | 0.00 | 0.00 | 0.00 | 91 | 1012.3 |
| 20260510093031 | 57 | 247 | 0.0 | 0.0 | 0.00 | 0.00 | 0.00 | 91 | 1012.3 |
| 20260510092533 | 57 | 247 | 0.0 | 0.0 | 0.00 | 0.00 | 0.00 | 91 | 1012.2 |
| 20260510092037 | 57 | 247 | 0.0 | 0.0 | 0.00 | 0.00 | 0.00 | 91 | 1012.2 |
| 20260510091540 | 57 | 247 | 0.0 | 0.0 | 0.00 | 0.00 | 0.00 | 91 | 1012.1 |
| 20260510091024 | 57 | 247 | 0.0 | 0.0 | 0.00 | 0.00 | 0.00 | 91 | 1012.1 |
| 20260510090528 | 57 | 247 | 0.0 | 0.0 | 0.00 | 0.00 | 0.00 | 91 | 1012.0 |
| 20260510090053 | 57 | 247 | 0.0 | 0.0 | 0.00 | 0.00 | 0.00 | 91 | 1012.0 |
| 20260510085536 | 57 | 247 | 0.0 | 0.0 | 0.00 | 0.00 | 0.00 | 91 | 1011.9 |
| 20260510085023 | 57 | 247 | 0.0 | 0.0 | 0.00 | 0.00 | 0.00 | 91 | 1012.0 |
| 20260510084527 | 57 | 247 | 0.0 | 0.0 | 0.00 | 0.00 | 0.00 | 91 | 1012.0 |
| 20260510084031 | 57 | 247 | 0.0 | 0.0 | 0.00 | 0.00 | 0.00 | 91 | 1012.0 |
| 20260510083535 | 57 | 247 | 0.0 | 0.0 | 0.00 | 0.00 | 0.00 | 91 | 1011.8 |
| 20260510083039 | 57 | 247 | 0.0 | 0.0 | 0.00 | 0.00 | 0.00 | 90 | 1011.8 |
| 20260510082542 | 57 | 247 | 0.0 | 0.0 | 0.00 | 0.00 | 0.00 | 91 | 1011.9 |
| 20260510082026 | 57 | 247 | 0.0 | 0.0 | 0.00 | 0.00 | 0.00 | 91 | 1011.9 |
| 20260510081529 | 57 | 247 | 0.0 | 0.0 | 0.00 | 0.00 | 0.00 | 91 | 1011.7 |
| 20260510081033 | 58 | 247 | 0.0 | 0.0 | 0.00 | 0.00 | 0.00 | 91 | 1011.6 |
| 20260510080558 | 58 | 247 | 0.0 | 0.0 | 0.00 | 0.00 | 0.00 | 91 | 1011.6 |
| 20260510080040 | 58 | 247 | 0.0 | 0.0 | 0.00 | 0.00 | 0.00 | 90 | 1011.5 |
| 20260510075525 | 58 | 247 | 0.0 | 0.0 | 0.00 | 0.00 | 0.00 | 90 | 1011.6 |
| 20260510075032 | 58 | 247 | 0.0 | 0.0 | 0.00 | 0.00 | 0.00 | 90 | 1011.6 |
| 20260510074536 | 58 | 247 | 0.0 | 0.0 | 0.00 | 0.00 | 0.00 | 90 | 1011.6 |
| 20260510074041 | 58 | 247 | 0.0 | 0.0 | 0.00 | 0.00 | 0.00 | 90 | 1011.6 |
| 20260510073523 | 58 | 247 | 0.0 | 0.0 | 0.00 | 0.00 | 0.00 | 91 | 1011.4 |
| 20260510073026 | 58 | 247 | 0.0 | 0.0 | 0.00 | 0.00 | 0.00 | 91 | 1011.3 |
| 20260510072530 | 58 | 247 | 0.0 | 0.0 | 0.00 | 0.00 | 0.00 | 91 | 1011.3 |
| 20260510072053 | 58 | 247 | 0.0 | 0.0 | 0.00 | 0.00 | 0.00 | 91 | 1011.3 |
| 20260510071555 | 58 | 247 | 0.0 | 0.0 | 0.00 | 0.00 | 0.00 | 91 | 1011.3 |
| 20260510071038 | 58 | 247 | 0.0 | 0.0 | 0.00 | 0.00 | 0.00 | 90 | 1011.2 |
| 20260510070542 | 58 | 247 | 0.0 | 0.0 | 0.00 | 0.00 | 0.00 | 90 | 1011.3 |
| 20260510070045 | 58 | 247 | 0.0 | 0.0 | 0.00 | 0.00 | 0.00 | 90 | 1011.3 |
| 20260510065529 | 58 | 247 | 0.0 | 0.0 | 0.00 | 0.00 | 0.00 | 90 | 1011.3 |
| 20260510065032 | 58 | 247 | 0.0 | 0.0 | 0.00 | 0.00 | 0.00 | 90 | 1011.3 |
| 20260510064535 | 58 | 247 | 0.0 | 0.0 | 0.00 | 0.00 | 0.00 | 90 | 1011.4 |
| 20260510064024 | 58 | 247 | 0.0 | 0.0 | 0.00 | 0.00 | 0.00 | 90 | 1011.3 |
| 20260510063527 | 58 | 247 | 0.0 | 0.0 | 0.00 | 0.00 | 0.00 | 90 | 1011.3 |
| 20260510063031 | 58 | 247 | 0.0 | 0.0 | 0.00 | 0.00 | 0.00 | 90 | 1011.4 |
| 20260510062535 | 58 | 247 | 0.0 | 0.0 | 0.00 | 0.00 | 0.00 | 90 | 1011.3 |
| 20260510062059 | 58 | 247 | 0.0 | 0.0 | 0.00 | 0.00 | 0.00 | 90 | 1011.3 |
| 20260510061603 | 58 | 247 | 0.0 | 0.0 | 0.00 | 0.00 | 0.00 | 90 | 1011.3 |
| 20260510061044 | 58 | 247 | 0.0 | 0.0 | 0.00 | 0.00 | 0.00 | 90 | 1011.3 |
| 20260510060527 | 58 | 247 | 0.0 | 0.0 | 0.00 | 0.00 | 0.00 | 90 | 1011.3 |
| 20260510060031 | 58 | 247 | 0.0 | 0.0 | 0.00 | 0.00 | 0.00 | 90 | 1011.4 |
| 20260510055535 | 58 | 247 | 0.0 | 0.0 | 0.00 | 0.00 | 0.00 | 90 | 1011.5 |
| 20260510055040 | 59 | 247 | 0.0 | 0.0 | 0.00 | 0.00 | 0.00 | 90 | 1011.6 |
| 20260510054543 | 59 | 247 | 0.0 | 0.0 | 0.00 | 0.00 | 0.00 | 90 | 1011.7 |
| 20260510054027 | 59 | 247 | 0.0 | 0.0 | 0.00 | 0.00 | 0.00 | 90 | 1011.7 |
| 20260510053536 | 59 | 247 | 0.0 | 0.0 | 0.00 | 0.00 | 0.00 | 90 | 1011.8 |
| 20260510053039 | 59 | 247 | 0.0 | 0.0 | 0.00 | 0.00 | 0.00 | 90 | 1011.8 |
| 20260510052523 | 59 | 247 | 0.0 | 0.0 | 0.00 | 0.00 | 0.00 | 89 | 1011.8 |
| 20260510052026 | 59 | 247 | 0.0 | 0.0 | 0.00 | 0.00 | 0.00 | 89 | 1011.8 |
| 20260510051530 | 59 | 247 | 0.0 | 0.0 | 0.00 | 0.00 | 0.00 | 89 | 1011.8 |
| 20260510051034 | 59 | 247 | 0.0 | 0.0 | 0.00 | 0.00 | 0.00 | 89 | 1011.8 |
| 20260510050538 | 59 | 247 | 0.0 | 0.0 | 0.00 | 0.00 | 0.00 | 89 | 1011.8 |
| 20260510050041 | 59 | 247 | 0.0 | 0.0 | 0.00 | 0.00 | 0.00 | 89 | 1012.0 |
| 20260510045546 | 59 | 247 | 0.0 | 0.0 | 0.00 | 0.00 | 0.00 | 89 | 1011.9 |
| 20260510045029 | 59 | 247 | 0.0 | 0.0 | 0.00 | 0.00 | 0.00 | 89 | 1011.8 |
| 20260510044533 | 60 | 247 | 0.0 | 0.0 | 0.00 | 0.00 | 0.00 | 89 | 1011.9 |
| 20260510044036 | 60 | 247 | 0.0 | 0.0 | 0.00 | 0.00 | 0.00 | 89 | 1011.9 |
| 20260510043524 | 60 | 247 | 0.0 | 0.0 | 0.00 | 0.00 | 0.00 | 89 | 1011.9 |
| 20260510043028 | 60 | 247 | 0.0 | 0.0 | 0.00 | 0.00 | 0.00 | 89 | 1011.9 |
| 20260510042533 | 60 | 247 | 0.0 | 0.0 | 0.00 | 0.00 | 0.00 | 88 | 1011.8 |
| 20260510042037 | 60 | 247 | 0.0 | 0.0 | 0.00 | 0.00 | 0.00 | 88 | 1011.8 |
| 20260510041541 | 60 | 247 | 0.0 | 0.0 | 0.00 | 0.00 | 0.00 | 88 | 1011.7 |
| 20260510041045 | 60 | 247 | 0.0 | 0.0 | 0.00 | 0.00 | 0.00 | 88 | 1011.7 |
| 20260510040527 | 60 | 247 | 0.0 | 0.0 | 0.00 | 0.00 | 0.00 | 88 | 1011.8 |
| 20260510040032 | 60 | 247 | 0.0 | 0.0 | 0.00 | 0.00 | 0.00 | 88 | 1011.8 |
| 20260510035556 | 60 | 247 | 0.0 | 0.0 | 0.00 | 0.00 | 0.00 | 88 | 1011.7 |
| 20260510035038 | 60 | 247 | 0.0 | 0.0 | 0.00 | 0.00 | 0.00 | 88 | 1011.8 |
| 20260510034542 | 60 | 247 | 0.0 | 0.0 | 0.00 | 0.00 | 0.00 | 87 | 1011.8 |
| 20260510034047 | 60 | 247 | 0.0 | 0.0 | 0.00 | 0.00 | 0.00 | 87 | 1011.9 |
| 20260510033529 | 60 | 247 | 0.0 | 0.0 | 0.00 | 0.00 | 0.00 | 87 | 1011.9 |
| 20260510033053 | 60 | 247 | 0.0 | 0.0 | 0.00 | 0.00 | 0.00 | 87 | 1011.8 |
| 20260510032541 | 60 | 247 | 0.0 | 0.0 | 0.00 | 0.00 | 0.00 | 87 | 1011.8 |
| 20260510032026 | 60 | 247 | 0.0 | 0.0 | 0.00 | 0.00 | 0.00 | 86 | 1011.8 |
| 20260510031551 | 61 | 247 | 0.0 | 0.0 | 0.00 | 0.00 | 0.00 | 86 | 1011.8 |
| 20260510031034 | 61 | 247 | 0.0 | 0.0 | 0.00 | 0.00 | 0.00 | 86 | 1011.7 |
| 20260510030538 | 61 | 247 | 0.0 | 0.0 | 0.00 | 0.00 | 0.00 | 86 | 1011.7 |
| 20260510030042 | 61 | 247 | 0.0 | 0.0 | 0.00 | 0.00 | 0.00 | 86 | 1011.7 |
| 20260510025525 | 61 | 247 | 0.0 | 0.0 | 0.00 | 0.00 | 0.00 | 86 | 1011.7 |
| 20260510025049 | 61 | 247 | 0.0 | 0.0 | 0.00 | 0.00 | 0.00 | 86 | 1011.6 |
| 20260510024532 | 61 | 247 | 0.0 | 0.0 | 0.00 | 0.00 | 0.00 | 86 | 1011.6 |
| 20260510024036 | 61 | 247 | 0.0 | 0.0 | 0.00 | 0.00 | 0.00 | 86 | 1011.6 |
| 20260510023540 | 62 | 247 | 0.0 | 0.0 | 0.00 | 0.00 | 0.00 | 86 | 1011.5 |
| 20260510023025 | 62 | 247 | 0.0 | 0.0 | 0.00 | 0.00 | 0.00 | 85 | 1011.6 |
| 20260510022549 | 62 | 247 | 0.0 | 0.0 | 0.00 | 0.00 | 0.00 | 85 | 1011.6 |
| 20260510022036 | 62 | 247 | 0.0 | 0.0 | 0.00 | 0.00 | 0.00 | 84 | 1011.6 |
| 20260510021541 | 62 | 247 | 0.0 | 0.0 | 0.00 | 0.00 | 0.00 | 83 | 1011.5 |
| 20260510021046 | 63 | 247 | 0.0 | 0.0 | 0.00 | 0.00 | 0.00 | 83 | 1011.5 |
| 20260510020530 | 63 | 247 | 0.0 | 0.0 | 0.00 | 0.00 | 0.00 | 83 | 1011.5 |
| 20260510020033 | 63 | 247 | 0.0 | 0.0 | 0.00 | 0.00 | 0.00 | 83 | 1011.4 |
| 20260510015537 | 63 | 247 | 0.0 | 0.0 | 0.00 | 0.00 | 0.00 | 83 | 1011.4 |
| 20260510015040 | 63 | 247 | 0.0 | 0.0 | 0.00 | 0.00 | 0.00 | 83 | 1011.3 |
| 20260510014525 | 64 | 247 | 0.0 | 0.0 | 0.00 | 0.00 | 0.00 | 83 | 1011.2 |
| 20260510014030 | 64 | 247 | 0.0 | 0.0 | 0.00 | 0.00 | 0.00 | 82 | 1011.0 |
| 20260510013555 | 64 | 247 | 0.0 | 0.0 | 0.00 | 0.00 | 0.00 | 82 | 1010.9 |
| 20260510013038 | 64 | 247 | 0.0 | 0.0 | 0.00 | 0.00 | 0.00 | 82 | 1010.8 |
| 20260510012523 | 65 | 247 | 0.0 | 0.0 | 0.00 | 0.00 | 0.00 | 82 | 1010.8 |
| 20260510012048 | 65 | 247 | 0.0 | 0.0 | 0.00 | 0.00 | 0.00 | 81 | 1010.6 |
| 20260510011535 | 65 | 247 | 0.0 | 0.0 | 0.00 | 0.00 | 0.00 | 80 | 1010.5 |
| 20260510011040 | 65 | 247 | 0.0 | 0.0 | 0.00 | 0.00 | 0.00 | 80 | 1010.4 |
| 20260510010524 | 66 | 247 | 0.0 | 0.0 | 0.00 | 0.00 | 0.00 | 79 | 1010.3 |
| 20260510010026 | 66 | 247 | 0.0 | 0.0 | 0.00 | 0.00 | 0.00 | 79 | 1010.4 |
| 20260510005531 | 66 | 247 | 0.0 | 0.0 | 0.00 | 0.00 | 0.00 | 79 | 1010.3 |
| 20260510005035 | 67 | 247 | 0.0 | 0.0 | 0.00 | 0.00 | 0.00 | 79 | 1010.3 |
| 20260510004540 | 67 | 247 | 0.0 | 0.0 | 0.00 | 0.00 | 0.00 | 78 | 1010.3 |
| 20260510004104 | 67 | 247 | 0.0 | 0.0 | 0.00 | 0.00 | 0.00 | 78 | 1010.3 |
| 20260510003527 | 67 | 247 | 0.0 | 0.0 | 0.00 | 0.00 | 0.00 | 78 | 1010.2 |
| 20260510003032 | 68 | 247 | 0.0 | 0.0 | 0.00 | 0.00 | 0.00 | 77 | 1010.2 |
| 20260510002537 | 68 | 247 | 0.0 | 0.0 | 0.00 | 0.00 | 0.00 | 77 | 1010.3 |
| 20260510002024 | 68 | 247 | 0.0 | 0.0 | 0.00 | 0.00 | 0.00 | 76 | 1010.3 |
| 20260510001528 | 68 | 247 | 0.0 | 0.0 | 0.00 | 0.00 | 0.00 | 76 | 1010.1 |
| 20260510001032 | 69 | 247 | 0.0 | 0.0 | 0.00 | 0.00 | 0.00 | 75 | 1010.1 |
| 20260510000533 | 69 | 247 | 0.0 | 0.0 | 0.00 | 0.00 | 0.00 | 76 | 1010.1 |
| 20260510000036 | 69 | 247 | 0.0 | 0.0 | 0.00 | 0.00 | 0.00 | 75 | 1010.0 |
| 20260509235600 | 69 | 247 | 0.0 | 0.0 | 0.00 | 0.00 | 0.00 | 75 | 1010.1 |
| 20260509235024 | 70 | 247 | 0.0 | 0.0 | 0.00 | 0.00 | 0.00 | 75 | 1009.9 |
| 20260509234527 | 70 | 247 | 0.0 | 0.0 | 0.00 | 0.00 | 0.00 | 74 | 1009.7 |
| 20260509234032 | 70 | 247 | 0.0 | 0.0 | 0.00 | 0.00 | 0.00 | 73 | 1009.6 |
| 20260509233536 | 70 | 247 | 0.0 | 0.9 | 0.00 | 0.00 | 0.00 | 73 | 1009.6 |
| 20260509233100 | 71 | 247 | 0.0 | 3.5 | 0.00 | 0.00 | 0.00 | 73 | 1009.6 |
| 20260509232542 | 71 | 247 | 0.0 | 3.5 | 0.00 | 0.00 | 0.00 | 72 | 1009.6 |
| 20260509232047 | 71 | 131 | 0.0 | 2.6 | 0.00 | 0.00 | 0.00 | 71 | 1009.5 |
| 20260509231551 | 71 | 253 | 0.0 | 0.0 | 0.00 | 0.00 | 0.00 | 71 | 1009.5 |
| 20260509231034 | 71 | 253 | 0.0 | 1.7 | 0.00 | 0.00 | 0.00 | 71 | 1009.4 |
| 20260509230543 | 71 | 253 | 0.0 | 3.5 | 0.00 | 0.00 | 0.00 | 70 | 1009.3 |
| 20260509230026 | 71 | 254 | 0.0 | 3.5 | 0.00 | 0.00 | 0.00 | 70 | 1009.2 |
| 20260509225551 | 71 | 225 | 0.0 | 3.5 | 0.00 | 0.00 | 0.00 | 70 | 1009.2 |
| 20260509225055 | 72 | 235 | 0.0 | 3.5 | 0.00 | 0.00 | 0.00 | 69 | 1009.1 |
| 20260509224538 | 72 | 257 | 0.0 | 3.5 | 0.00 | 0.00 | 0.00 | 69 | 1009.1 |
| 20260509224043 | 72 | 133 | 0.9 | 5.2 | 0.00 | 0.00 | 0.00 | 69 | 1009.1 |
| 20260509223526 | 72 | 175 | 0.9 | 5.2 | 0.00 | 0.00 | 0.00 | 69 | 1009.0 |
| 20260509223031 | 72 | 58 | 0.9 | 5.2 | 0.00 | 0.00 | 0.00 | 69 | 1009.2 |
| 20260509222535 | 72 | 113 | 1.7 | 5.2 | 0.00 | 0.00 | 0.00 | 69 | 1009.1 |
| 20260509222040 | 72 | 146 | 0.0 | 3.5 | 0.00 | 0.00 | 0.00 | 69 | 1009.2 |
| 20260509221524 | 73 | 242 | 0.9 | 3.5 | 0.00 | 0.00 | 0.00 | 68 | 1009.2 |
| 20260509221029 | 73 | 245 | 0.9 | 4.3 | 0.00 | 0.00 | 0.00 | 67 | 1009.2 |
| 20260509220536 | 73 | 107 | 0.0 | 7.0 | 0.00 | 0.00 | 0.00 | 67 | 1009.2 |
| 20260509220040 | 73 | 183 | 0.0 | 7.0 | 0.00 | 0.00 | 0.00 | 67 | 1009.2 |
| 20260509215524 | 73 | 137 | 0.9 | 5.2 | 0.00 | 0.00 | 0.00 | 67 | 1009.3 |
| 20260509215029 | 73 | 147 | 0.9 | 7.8 | 0.00 | 0.00 | 0.00 | 66 | 1009.2 |
| 20260509214534 | 74 | 319 | 1.7 | 7.8 | 0.00 | 0.00 | 0.00 | 66 | 1009.0 |
| 20260509214039 | 74 | 192 | 0.9 | 6.1 | 0.00 | 0.00 | 0.00 | 66 | 1009.1 |
| 20260509213523 | 74 | 180 | 0.9 | 7.0 | 0.00 | 0.00 | 0.00 | 66 | 1009.2 |
| 20260509213047 | 74 | 38 | 0.9 | 7.0 | 0.00 | 0.00 | 0.00 | 66 | 1009.1 |
| 20260509212531 | 74 | 248 | 0.9 | 6.1 | 0.00 | 0.00 | 0.00 | 65 | 1009.1 |
| 20260509212036 | 75 | 314 | 1.7 | 6.1 | 0.00 | 0.00 | 0.00 | 65 | 1009.1 |
| 20260509211541 | 75 | 291 | 0.9 | 6.1 | 0.00 | 0.00 | 0.00 | 64 | 1009.1 |
| 20260509211029 | 75 | 166 | 0.9 | 7.0 | 0.00 | 0.00 | 0.00 | 64 | 1008.9 |
| 20260509210533 | 75 | 204 | 0.9 | 7.0 | 0.00 | 0.00 | 0.00 | 64 | 1008.7 |
| 20260509210038 | 75 | 51 | 1.7 | 5.2 | 0.00 | 0.00 | 0.00 | 65 | 1008.7 |
| 20260509205542 | 75 | 216 | 1.7 | 5.2 | 0.00 | 0.00 | 0.00 | 65 | 1008.9 |
| 20260509205027 | 74 | 102 | 0.0 | 8.7 | 0.00 | 0.00 | 0.00 | 67 | 1009.0 |
| 20260509204552 | 74 | 115 | 2.6 | 8.7 | 0.00 | 0.00 | 0.00 | 66 | 1009.1 |
| 20260509204034 | 74 | 311 | 1.7 | 6.1 | 0.00 | 0.00 | 0.00 | 66 | 1009.0 |
| 20260509203539 | 73 | 223 | 0.0 | 4.3 | 0.00 | 0.00 | 0.00 | 67 | 1008.9 |
| 20260509203103 | 73 | 257 | 0.9 | 6.1 | 0.00 | 0.00 | 0.00 | 68 | 1008.9 |
| 20260509202527 | 72 | 235 | 0.9 | 6.1 | 0.00 | 0.00 | 0.00 | 70 | 1009.2 |
| 20260509202031 | 72 | 348 | 0.9 | 5.2 | 0.00 | 0.00 | 0.00 | 69 | 1009.2 |
| 20260509201536 | 72 | 309 | 0.9 | 5.2 | 0.00 | 0.00 | 0.00 | 69 | 1009.3 |
| 20260509201023 | 72 | 232 | 0.0 | 3.5 | 0.00 | 0.00 | 0.00 | 69 | 1009.2 |
| 20260509200548 | 72 | 186 | 1.7 | 3.5 | 0.00 | 0.00 | 0.00 | 68 | 1009.2 |
| 20260509200032 | 72 | 251 | 0.9 | 4.3 | 0.00 | 0.00 | 0.00 | 69 | 1009.4 |
| 20260509195556 | 72 | 227 | 0.9 | 4.3 | 0.00 | 0.00 | 0.00 | 69 | 1009.4 |
| 20260509195040 | 72 | 36 | 0.0 | 7.0 | 0.00 | 0.00 | 0.00 | 69 | 1009.4 |
| 20260509194545 | 72 | 78 | 0.9 | 7.0 | 0.00 | 0.00 | 0.00 | 68 | 1009.4 |
| 20260509194028 | 72 | 305 | 1.7 | 6.1 | 0.00 | 0.00 | 0.00 | 67 | 1009.5 |
| 20260509193552 | 72 | 225 | 1.7 | 7.0 | 0.00 | 0.00 | 0.00 | 67 | 1009.5 |
| 20260509193036 | 72 | 336 | 0.9 | 7.0 | 0.00 | 0.00 | 0.00 | 68 | 1009.6 |
| 20260509192601 | 72 | 254 | 0.9 | 6.1 | 0.00 | 0.00 | 0.00 | 67 | 1009.6 |
| 20260509192023 | 73 | 220 | 0.0 | 3.5 | 0.00 | 0.00 | 0.00 | 70 | 1009.7 |
| 20260509191528 | 72 | 134 | 0.9 | 5.2 | 0.00 | 0.00 | 0.00 | 68 | 1009.7 |
| 20260509191054 | 72 | 116 | 0.0 | 5.2 | 0.00 | 0.00 | 0.00 | 68 | 1009.7 |
| 20260509190537 | 72 | 236 | 0.9 | 4.3 | 0.00 | 0.00 | 0.00 | 67 | 1009.6 |
| 20260509190041 | 72 | 99 | 0.0 | 4.3 | 0.00 | 0.00 | 0.00 | 69 | 1009.6 |
| 20260509185525 | 72 | 160 | 0.0 | 4.3 | 0.00 | 0.00 | 0.00 | 69 | 1009.6 |
| 20260509185032 | 71 | 259 | 0.9 | 4.3 | 0.00 | 0.00 | 0.00 | 68 | 1009.7 |
| 20260509184557 | 72 | 188 | 1.7 | 4.3 | 0.00 | 0.00 | 0.00 | 67 | 1009.9 |
| 20260509184040 | 72 | 36 | 0.0 | 3.5 | 0.00 | 0.00 | 0.00 | 68 | 1009.9 |
| 20260509183524 | 72 | 249 | 0.9 | 3.5 | 0.00 | 0.00 | 0.00 | 67 | 1010.0 |
| 20260509183028 | 72 | 113 | 0.0 | 4.3 | 0.00 | 0.00 | 0.00 | 66 | 1010.0 |
| 20260509182533 | 72 | 317 | 0.9 | 4.3 | 0.00 | 0.00 | 0.00 | 65 | 1010.0 |
| 20260509182057 | 73 | 298 | 0.0 | 4.3 | 0.00 | 0.00 | 0.00 | 64 | 1009.9 |
| 20260509181541 | 73 | 153 | 0.0 | 4.3 | 0.00 | 0.00 | 0.00 | 64 | 1010.0 |
| 20260509181044 | 73 | 5 | 0.9 | 3.5 | 0.00 | 0.00 | 0.00 | 63 | 1010.0 |
| 20260509180547 | 73 | 306 | 0.0 | 13.9 | 0.00 | 0.00 | 0.00 | 63 | 1010.0 |
| 20260509180031 | 73 | 56 | 1.7 | 13.9 | 0.00 | 0.00 | 0.00 | 61 | 1010.1 |
| 20260509175536 | 73 | 335 | 2.6 | 7.0 | 0.00 | 0.00 | 0.00 | 64 | 1010.1 |
| 20260509175041 | 73 | 91 | 2.6 | 7.8 | 0.00 | 0.00 | 0.00 | 64 | 1010.1 |
| 20260509174526 | 73 | 238 | 0.9 | 4.3 | 0.00 | 0.00 | 0.00 | 64 | 1010.3 |
| 20260509174034 | 72 | 116 | 0.9 | 5.2 | 0.00 | 0.00 | 0.00 | 65 | 1010.3 |
| 20260509173538 | 72 | 122 | 0.9 | 5.2 | 0.00 | 0.00 | 0.00 | 64 | 1010.4 |
| 20260509173102 | 72 | 147 | 0.9 | 4.3 | 0.00 | 0.00 | 0.00 | 64 | 1010.5 |
| 20260509172545 | 72 | 43 | 0.9 | 4.3 | 0.00 | 0.00 | 0.00 | 62 | 1010.6 |
| 20260509172047 | 73 | 63 | 0.0 | 6.1 | 0.00 | 0.00 | 0.00 | 63 | 1010.5 |
| 20260509171532 | 73 | 248 | 2.6 | 6.1 | 0.00 | 0.00 | 0.00 | 62 | 1010.6 |
| 20260509171035 | 73 | 121 | 0.9 | 5.2 | 0.00 | 0.00 | 0.00 | 65 | 1010.7 |
| 20260509170539 | 72 | 244 | 0.0 | 5.2 | 0.00 | 0.00 | 0.00 | 65 | 1010.9 |
| 20260509170042 | 72 | 202 | 0.0 | 3.5 | 0.00 | 0.00 | 0.00 | 65 | 1011.0 |
| 20260509165526 | 71 | 169 | 0.0 | 3.5 | 0.00 | 0.00 | 0.00 | 65 | 1011.1 |
| 20260509165030 | 71 | 235 | 0.0 | 2.6 | 0.00 | 0.00 | 0.00 | 64 | 1011.2 |
| 20260509164554 | 72 | 259 | 0.9 | 6.1 | 0.00 | 0.00 | 0.00 | 64 | 1011.4 |
| 20260509164036 | 72 | 221 | 0.9 | 6.1 | 0.00 | 0.00 | 0.00 | 63 | 1011.4 |
| 20260509163541 | 72 | 205 | 0.9 | 4.3 | 0.00 | 0.00 | 0.00 | 63 | 1011.4 |
| 20260509163029 | 72 | 251 | 1.7 | 7.8 | 0.00 | 0.00 | 0.00 | 63 | 1011.4 |